Location: Easthampton
(42.2676°N, 72.6690°W)
Time: 13:02:55
(UTC+00:00)

CUTE-I - Visible Passes

Search period start: 27 March 2023 00:00
Search period end: 06 April 2023 00:00
Orbit: 809 x 823 km, 98.7° (Epoch: 26 March)

Date Brightness Start Highest point End Pass type
(mag) Time Alt. Az. Time Alt. Az. Time Alt. Az.
27 Mar ? 09:57:13 10° NE 10:00:35 17° E 10:03:57 10° SE visible
29 Mar ? 23:58:28 10° WSW 23:59:59 11° W 00:01:32 10° WNW visible
01 Apr ? 09:48:22 10° ENE 09:50:59 14° E 09:53:36 10° ESE visible
03 Apr ? 23:47:37 10° WSW 23:50:21 14° W 23:53:05 10° WNW visible
